DW2584 Weather Reports


time (UTC)temp
C
wind
direction
speed
KPH
gust
KPH
rain 1hr
cm
rain 24hr
cm
rain mn
cm
humidity
%
barometer
mb
20260508014618 18 228 8.0 24.1 0.00 0.00 0.00 10 1018.5
20260508013012 18 215 11.3 29.0 0.00 0.00 0.00 9 1018.3
20260508011508 18 185 12.9 27.4 0.00 0.00 0.00 10 1018.2
20260508010004 18 222 9.7 22.5 0.00 0.00 0.00 10 1018.3
20260508004601 19 231 12.9 22.5 0.00 0.00 0.00 10 1018.3
20260508003106 18 216 12.9 20.9 0.00 0.00 0.00 10 1018.4
20260508001556 19 206 8.0 17.7 0.00 0.00 0.00 11 1018.4
20260508000047 18 261 14.5 22.5 0.00 0.00 0.00 11 1018.5
20260507234542 18 220 16.1 24.1 0.00 0.00 0.00 13 1018.5
20260507233038 18 291 19.3 32.2 0.00 0.00 0.00 14 1018.5
20260507231534 18 222 14.5 27.4 0.00 0.00 0.00 15 1018.6
20260507230029 18 234 16.1 27.4 0.00 0.00 0.00 16 1018.6
20260507224525 18 247 12.9 24.1 0.00 0.00 0.00 18 1018.6
20260507223020 18 248 12.9 24.1 0.00 0.00 0.00 18 1018.7
20260507221515 18 327 9.7 24.1 0.00 0.00 0.00 16 1018.9
20260507220012 18 81 4.8 29.0 0.00 0.00 0.00 18 1019.1
20260507214506 18 302 17.7 24.1 0.00 0.00 0.00 15 1019.3
20260507213003 18 319 12.9 25.7 0.00 0.00 0.00 14 1019.4
20260507211626 17 343 12.9 19.3 0.00 0.00 0.00 12 1019.7
20260507210054 17 313 12.9 22.5 0.00 0.00 0.00 12 1019.8
20260507204557 17 280 14.5 27.4 0.00 0.00 0.00 10 1020.0
20260507203045 17 34 4.8 25.7 0.00 0.00 0.00 9 1020.2
20260507201541 17 311 9.7 30.6 0.00 0.00 0.00 8 1020.4
20260507200038 16 330 6.4 25.7 0.00 0.00 0.00 9 1020.5
20260507194538 16 307 11.3 20.9 0.00 0.00 0.00 9 1020.6
20260507193035 16 317 14.5 29.0 0.00 0.00 0.00 9 1020.8
20260507191528 16 310 16.1 29.0 0.00 0.00 0.00 10 1020.8
20260507190028 16 341 19.3 32.2 0.00 0.00 0.00 11 1020.9
20260507184523 15 310 12.9 27.4 0.00 0.00 0.00 14 1021.1
20260507183022 15 308 16.1 30.6 0.00 0.00 0.00 15 1021.1
20260507181516 15 291 17.7 29.0 0.00 0.00 0.00 16 1021.3
20260507180014 14 318 11.3 33.8 0.00 0.00 0.00 23 1021.4
20260507174510 13 308 24.1 38.6 0.00 0.00 0.00 26 1021.6
20260507173005 12 338 20.9 32.2 0.00 0.00 0.00 29 1021.8
20260507171500 11 13 16.1 30.6 0.00 0.00 0.00 35 1022.1
20260507170057 11 4 19.3 33.8 0.00 0.00 0.00 37 1022.2
20260507164553 10 345 20.9 35.4 0.00 0.00 0.00 39 1022.2
20260507163048 9 354 9.7 22.5 0.00 0.00 0.00 44 1022.4
20260507161545 8 32 6.4 29.0 0.00 0.00 0.00 49 1022.4
20260507160040 7 345 17.7 29.0 0.00 0.00 0.00 50 1022.6
20260507154535 6 18 14.5 27.4 0.00 0.00 0.00 49 1022.7
20260507153034 6 341 16.1 33.8 0.00 0.00 0.00 51 1022.7
20260507151528 6 298 16.1 25.7 0.00 0.00 0.00 50 1022.7
20260507150022 6 317 11.3 19.3 0.00 0.00 0.00 54 1022.7
20260507144520 5 310 8.0 24.1 0.00 0.00 0.00 58 1022.9
20260507143013 5 329 8.0 17.7 0.00 0.00 0.00 60 1023.1
20260507141509 5 359 12.9 19.3 0.00 0.00 0.00 62 1023.2
20260507140005 5 359 6.4 17.7 0.00 0.00 0.00 64 1023.3
20260507134503 5 314 1.6 4.8 0.00 0.00 0.00 67 1023.2
20260507133057 3 276 1.6 6.4 0.00 0.00 0.00 70 1023.1
20260507131552 2 58 4.8 8.0 0.00 0.00 0.00 69 1023.2
20260507130048 2 72 3.2 8.0 0.00 0.00 0.00 73 1023.3
20260507124543 1 72 1.6 4.8 0.00 0.00 0.00 77 1023.3
20260507123039 1 72 3.2 6.4 0.00 0.00 0.00 77 1023.3
20260507121537 0 68 3.2 9.7 0.00 0.00 0.00 76 1023.3
20260507120034 1 73 3.2 8.0 0.00 0.00 0.00 76 1023.3
20260507114534 1 73 3.2 6.4 0.00 0.00 0.00 73 1023.2
20260507113039 0 73 3.2 8.0 0.00 0.00 0.00 73 1023.2
20260507111536 0 76 6.4 8.0 0.00 0.00 0.00 72 1023.2
20260507110030 0 81 6.4 9.7 0.00 0.00 0.00 71 1023.1
20260507104531 1 70 1.6 8.0 0.00 0.00 0.00 71 1023.2
20260507103027 1 91 3.2 9.7 0.00 0.00 0.00 70 1023.2
20260507101537 1 96 3.2 6.4 0.00 0.00 0.00 71 1023.2
20260507100030 1 107 3.2 6.4 0.00 0.00 0.00 73 1023.1
20260507094520 1 108 1.6 4.8 0.00 0.00 0.00 74 1023.3
20260507093026 1 108 1.6 4.8 0.00 0.00 0.00 73 1023.2
20260507091536 1 108 0.0 4.8 0.00 0.00 0.00 70 1023.2
20260507090013 1 108 0.0 3.2 0.00 0.00 0.00 70 1023.2
20260507084510 2 108 1.6 4.8 0.00 0.00 0.00 70 1023.0
20260507083014 2 108 0.0 3.2 0.00 0.00 0.00 67 1023.0
20260507081507 2 108 1.6 6.4 0.00 0.00 0.00 65 1023.0
20260507080006 2 108 1.6 3.2 0.00 0.00 0.00 61 1022.9
20260507074505 3 108 0.0 3.2 0.00 0.00 0.00 60 1023.0
20260507073110 3 108 3.2 6.4 0.00 0.00 0.00 60 1022.8
20260507071600 3 102 3.2 9.7 0.00 0.00 0.00 59 1022.6
20260507070137 3 21 8.0 14.5 0.00 0.00 0.00 63 1022.6
20260507064553 3 18 4.8 9.7 0.00 0.00 0.00 60 1022.5
20260507063049 4 66 4.8 8.0 0.00 0.00 0.00 57 1022.4
20260507061549 4 33 6.4 14.5 0.00 0.00 0.00 58 1022.2
20260507060045 4 29 3.2 9.7 0.00 0.00 0.00 57 1022.1
20260507054550 5 8 3.2 9.7 0.00 0.03 0.00 55 1022.0
20260507053045 5 70 3.2 6.4 0.00 0.03 0.00 58 1021.9
20260507051543 5 80 1.6 6.4 0.00 0.03 0.00 57 1021.9
20260507050041 5 78 1.6 9.7 0.00 0.03 0.00 57 1021.9
20260507044546 6 79 4.8 8.0 0.00 0.08 0.00 55 1021.8
20260507043042 6 84 1.6 6.4 0.00 0.08 0.00 53 1021.6
20260507041537 7 85 0.0 9.7 0.00 0.08 0.00 53 1021.4
20260507040034 7 347 3.2 6.4 0.00 0.08 0.00 48 1021.2
20260507034533 7 335 3.2 6.4 0.00 0.08 0.00 46 1021.0
20260507033033 8 269 3.2 12.9 0.00 0.08 0.00 46 1021.0
20260507031530 8 265 0.0 9.7 0.00 0.08 0.00 44 1020.6
20260507030027 9 209 4.8 8.0 0.00 0.20 0.00 42 1020.4
20260507024529 9 237 6.4 14.5 0.00 0.20 0.00 41 1020.1
20260507023025 9 248 9.7 17.7 0.00 0.20 0.00 39 1019.9
20260507021524 10 257 11.3 20.9 0.00 0.20 0.00 38 1019.7
20260507020024 10 273 17.7 27.4 0.00 0.46 0.00 36 1019.6